Location: Bourg-d�Oueil
(42.8588°N, 0.4991°E)
Time: 05:37:19
(UTC+00:00)

FengYun 1-2 T - Pass Details

Date: 29 January 2022
Orbit: 846 x 881 km, 98.7° (Epoch: 21 May)

Event Time Altitude Azimuth Distance (km) Brightness Sun altitude
Rises 06:04:26 0° 14° (NNE) 3,479 7.4 -13.3°
Reaches altitude 10° 06:06:50 10° 16° (NNE) 2,540 6.7 -12.8°
Maximum altitude 06:12:31 82° 104° (ESE) 895 4.4 -11.8°
Drops below altitude 10° 06:18:10 10° 192° (SSW) 2,532 6.7 -10.8°
Sets 06:20:33 0° 193° (SSW) 3,466 7.4 -10.4°
